SCP
0 0 0 0 0 0 0 0 0 0 1 1 2 1 1 1 2 2 3 4 6 6 6 5 5 5 4 4 3 3 3 3 3 4 5 5 7 7 7 6 5 4 3 2 2 2 2 3 2
0 0 0 0 0 0 0 0 0 1 2 2 2 1 1 2 4 5 4 5 7 7 6 6 6 5 5 4 3 3 2 3 3 4 5 6 7 7 6 5 4 4 3 2 2 2 2 2 2
0 0 0 0 0 0 0 0 1 2 3 3 2 2 2 3 5 6 5 6 8 8 7 6 6 6 5 4 3 3 2 3 3 4 5 6 7 6 6 4 4 3 3 2 2 2 2 2 2
0 0 0 0 0 0 0 0 1 2 3 3 2 2 2 3 4 5 6 8 10 9 7 7 7 6 5 4 4 3 3 3 4 4 5 6 6 6 5 4 4 3 3 2 2 3 2 2 2
0 0 0 0 0 0 0 0 1 1 2 2 2 2 3 3 3 4 7 10 11 10 8 7 8 7 5 4 3 3 3 3 4 4 5 6 6 6 5 4 4 3 3 2 2 3 3 2 2
0 0 0 0 0 0 0 0 0 1 1 2 2 3 3 2 2 4 9 12 12 11 10 9 8 7 5 4 3 3 3 3 4 5 5 5 5 5 5 4 4 3 3 2 2 2 2 2 2
0 0 0 0 0 0 0 0 0 1 1 2 2 3 3 2 2 5 9 12 13 13 12 10 8 6 5 4 3 3 3 3 4 5 5 5 5 4 4 4 3 3 3 3 3 2 2 2 1
0 0 0 0 0 0 0 1 1 1 1 2 2 3 3 2 3 5 9 11 13 14 13 10 7 6 5 4 3 3 3 3 4 4 4 4 4 4 3 3 3 3 3 3 3 3 2 2 2
0 0 0 0 0 0 1 1 1 1 1 2 3 3 3 3 3 4 7 10 12 12 12 9 7 6 5 4 3 3 3 3 4 4 4 3 3 3 3 3 3 3 3 3 3 3 3 2 2
0 0 0 0 0 0 1 1 1 1 2 3 3 3 3 3 3 3 5 7 9 10 10 9 7 6 5 4 3 3 3 3 3 3 3 3 3 3 3 3 3 3 3 3 3 3 3 3 3
0 0 0 0 0 1 1 1 1 1 1 2 3 3 3 3 3 3 3 4 6 7 8 8 8 7 5 3 3 3 3 3 3 3 3 2 2 2 2 3 3 3 3 4 4 4 4 3 3
0 0 0 0 1 0 1 1 1 1 1 2 2 2 2 2 2 2 2 2 3 5 7 7 7 6 4 3 2 2 2 3 3 3 2 2 2 2 3 3 3 3 3 4 4 4 4 3 2
0 0 1 1 1 0 0 1 1 1 1 1 2 2 2 2 2 2 2 2 2 4 5 6 6 5 3 2 2 2 2 2 3 3 3 2 2 3 3 3 3 3 3 3 4 4 4 3 2
0 1 1 1 1 0 1 1 1 1 1 2 2 2 2 2 2 1 2 1 2 3 4 5 5 4 3 2 2 2 3 3 3 3 3 3 3 3 3 3 3 3 3 3 4 4 4 3 2
0 1 1 1 1 0 0 1 1 1 1 2 2 2 2 2 2 2 2 1 2 2 3 4 4 3 2 2 2 3 3 3 3 3 2 3 3 3 3 3 3 3 3 3 4 4 4 3 2
0 1 1 1 0 0 0 0 1 1 2 2 2 2 2 2 2 1 1 1 2 2 2 2 3 3 2 2 2 3 3 3 3 2 2 2 2 2 3 2 2 3 3 3 3 4 3 3 2
0 0 0 0 0 0 0 0 1 1 2 2 2 2 2 2 2 1 1 2 2 2 2 2 2 2 2 1 1 2 2 2 2 2 1 1 2 2 2 2 2 2 2 3 3 3 3 2 2
0 0 0 0 0 0 0 1 1 1 2 2 2 2 2 2 1 1 2 2 3 3 2 2 2 2 2 1 1 1 1 1 1 1 1 1 1 2 2 2 2 1 2 2 2 2 2 3 2
0 0 0 1 1 1 1 1 1 1 2 2 2 2 1 1 1 2 2 3 3 3 3 2 2 2 2 2 2 1 1 0 0 0 1 1 1 1 2 2 1 1 1 2 2 2 2 3 3
0 0 1 1 1 0 0 0 1 1 1 1 1 1 1 1 1 2 2 3 3 3 3 3 2 2 3 2 2 1 1 0 0 0 1 1 1 1 1 2 1 1 1 1 1 2 2 2 2
0 1 1 1 1 0 0 0 1 1 1 1 1 1 1 1 1 2 2 3 4 4 4 3 3 3 3 3 2 1 1 1 0 0 1 1 1 1 1 2 1 1 1 1 1 1 2 2 2
0 0 1 1 0 0 0 0 0 1 1 1 1 1 1 1 2 2 2 3 4 4 4 4 4 4 4 3 2 2 1 1 1 0 1 1 1 1 2 2 2 1 1 0 0 1 2 2 2
0 0 0 0 0 0 0 0 0 0 1 1 1 0 1 1 2 2 3 4 5 5 5 5 5 5 4 3 2 2 1 1 1 1 1 1 2 2 2 2 2 1 1 1 0 1 1 1 1
0 0 0 0 0 0 0 0 0 0 0 0 0 0 1 1 2 3 3 4 5 5 6 6 5 5 5 4 3 2 2 2 1 1 1 1 2 2 3 3 2 2 1 1 1 1 1 1 1
0 0 0 0 0 0 0 0 0 0 0 0 0 0 1 2 3 4 4 4 5 5 6 6 6 6 5 5 4 3 3 2 2 2 2 2 2 3 4 4 3 2 2 1 1 1 1 1 1
0 0 0 0 0 0 0 0 0 0 0 0 1 1 1 2 3 4 4 4 4 5 6 6 6 7 6 6 5 5 4 3 3 2 2 3 3 4 5 5 4 3 2 2 1 1 1 0 0
0 0 0 0 0 0 0 0 0 0 0 1 1 1 1 2 3 4 4 4 4 4 5 5 6 7 7 6 6 6 5 5 4 4 4 4 4 5 6 6 5 4 3 2 2 1 0 0 0
0 0 0 0 0 0 0 0 0 0 0 1 1 1 1 1 2 3 3 3 3 4 4 5 5 6 6 7 7 7 7 6 6 6 5 6 6 7 7 7 6 5 4 3 3 2 1 0 0
0 0 0 0 0 0 0 0 0 0 0 1 1 1 1 1 1 2 2 2 3 4 5 6 6 7 7 8 8 8 8 8 8 8 7 7 8 8 8 7 7 6 5 5 4 3 2 1 1
0 0 0 0 0 0 0 0 0 0 0 1 1 1 1 1 1 1 1 2 3 5 6 7 7 8 8 8 9 9 9 9 9 9 8 9 9 9 8 7 7 7 6 6 5 4 2 1 1
Wind_Speed
2 2 2 3 5 5 1 3 2 2 1 1 1 3 3 3 3 2 0 5 6 7 7 9 12 12 12 11 11 12 12 12 12 12 12 12 12 12 12 12 11 10 10 10 10 9 9 8 8
2 2 3 4 5 2 3 3 2 2 1 1 3 3 3 2 2 3 2 4 7 8 6 7 11 11 11 11 11 11 11 12 11 11 11 11 11 11 11 11 11 10 9 9 9 8 8 7 7
2 1 4 4 3 3 3 2 2 1 0 1 2 2 2 1 2 3 2 6 7 6 5 6 12 11 11 10 10 10 11 11 11 11 10 10 10 9 9 9 10 9 8 8 8 8 7 7 6
3 4 5 5 0 4 4 3 1 0 1 1 2 2 2 2 2 3 7 8 8 6 5 6 12 11 11 11 10 10 10 10 10 10 10 9 9 9 8 8 8 8 8 7 7 7 6 6 6
4 4 5 2 3 4 3 3 2 1 0 0 3 2 1 3 4 7 8 8 8 6 4 5 11 10 10 10 9 9 9 9 9 9 9 8 8 8 8 8 7 7 7 7 6 6 6 5 5
5 5 4 1 3 4 3 2 1 1 1 1 2 3 1 2 5 6 6 6 6 6 5 5 9 10 9 9 9 8 8 8 8 8 8 8 7 7 8 7 6 6 6 6 6 6 5 5 5
4 4 2 2 3 3 2 1 1 1 1 1 3 4 1 1 3 5 5 6 5 5 4 3 4 6 8 8 7 7 6 7 7 7 7 8 7 8 7 7 6 6 6 6 6 6 5 5 4
4 4 1 1 2 3 2 1 1 1 1 1 3 4 3 4 6 6 5 5 4 4 3 3 3 3 3 4 7 7 7 7 7 7 7 7 6 6 7 6 6 6 6 6 5 5 5 5 4
4 4 1 4 4 3 1 1 1 1 3 2 2 1 3 10 9 7 5 4 3 3 2 2 3 2 2 2 4 4 5 5 5 5 6 5 2 2 3 5 6 6 6 6 5 5 5 4 4
4 3 6 5 4 3 1 0 1 2 2 2 2 3 8 11 9 8 6 5 4 3 3 2 2 2 2 2 2 1 1 1 1 1 2 1 1 2 3 4 6 6 6 6 6 5 4 3 2
4 5 4 4 4 3 1 0 1 4 1 4 4 7 9 9 8 8 6 5 4 3 3 2 2 2 2 1 1 1 1 1 1 1 1 1 1 1 1 1 2 3 4 3 3 3 2 1 1
3 5 4 3 2 2 3 3 1 3 5 3 6 9 10 9 8 7 6 4 3 3 2 2 2 2 1 1 1 1 1 1 1 1 2 1 1 1 1 1 1 1 1 1 1 1 1 1 2
3 3 2 2 2 1 2 2 2 2 2 3 7 9 9 8 6 4 4 4 3 3 2 2 2 2 1 1 1 1 1 1 1 1 2 2 2 2 2 1 1 2 2 2 2 2 2 2 2
3 2 3 3 1 1 3 0 1 3 3 6 7 7 6 7 5 4 4 4 4 4 3 2 2 2 2 2 1 1 2 1 1 1 2 2 2 2 2 2 2 2 2 2 2 2 2 2 2
1 2 4 2 0 1 4 2 2 2 5 6 5 6 5 5 5 5 5 4 4 3 3 2 3 2 2 2 2 1 2 1 1 1 2 2 2 2 2 2 2 2 2 2 2 2 1 1 1
2 2 2 4 1 0 4 2 3 2 5 5 4 5 4 4 4 4 3 3 3 3 3 2 2 1 1 1 2 1 1 1 1 1 2 2 3 3 2 2 2 2 1 2 2 2 1 1 1
3 0 2 4 2 1 2 3 3 2 5 5 4 5 4 3 3 2 3 3 3 3 3 2 0 0 0 0 0 0 0 1 1 1 1 2 3 3 2 2 1 1 1 1 2 1 2 1 1
3 2 2 3 3 1 1 3 3 2 4 4 4 4 4 4 4 3 3 3 3 2 2 2 1 0 1 1 1 1 1 1 1 0 1 1 1 2 2 1 1 1 1 1 1 2 1 1 1
3 2 3 5 3 0 2 3 4 2 3 3 3 4 4 3 2 3 3 3 3 3 3 2 1 1 1 1 1 0 1 1 1 1 1 0 0 1 2 2 2 2 2 2 2 2 2 1 1
3 2 3 4 2 1 1 4 3 2 4 5 5 5 5 3 2 2 3 3 3 3 3 2 2 1 1 1 0 1 0 0 0 1 2 1 0 1 1 2 2 2 1 2 2 2 2 1 1
3 5 4 3 3 2 1 4 3 2 1 1 2 3 3 5 5 4 3 3 3 3 3 2 2 1 1 1 1 1 1 1 2 2 2 2 1 1 1 2 2 2 1 1 1 2 3 1 0
4 5 4 2 1 2 1 3 5 2 2 2 3 3 3 3 3 4 4 4 3 3 2 2 2 1 1 2 2 2 1 1 0 0 0 1 1 0 1 2 2 2 1 1 1 2 2 2 1
5 1 2 2 2 1 1 1 7 1 3 4 3 3 3 3 4 4 4 3 3 2 2 2 1 1 1 1 2 1 1 1 0 1 1 2 2 1 1 1 1 1 1 1 1 2 2 2 2
4 4 4 4 4 1 3 3 6 3 4 3 3 3 3 2 3 3 2 2 2 2 2 2 2 1 1 1 1 2 2 1 1 1 1 1 1 1 1 1 1 1 1 1 1 1 2 1 2
4 5 3 4 3 4 2 2 7 5 3 3 4 4 4 4 4 3 3 2 2 2 2 2 2 1 1 1 1 1 1 2 2 1 0 0 1 1 1 0 1 1 1 1 1 1 1 2 2
4 7 6 4 4 4 1 4 6 3 1 1 2 3 4 4 4 4 4 3 2 2 1 1 1 1 1 1 0 0 1 1 1 1 1 1 1 1 1 0 0 1 1 1 1 1 1 1 1
4 3 5 5 1 1 4 5 5 1 3 2 2 3 3 3 4 4 3 2 2 2 2 2 2 1 1 1 1 0 1 1 1 1 1 1 1 1 0 0 0 0 1 1 2 1 1 1 1
4 6 5 4 3 2 4 3 4 4 3 1 1 3 3 3 2 2 3 3 2 2 2 1 2 2 1 1 1 1 1 1 1 1 1 1 0 0 1 1 1 1 1 1 1 1 0 0 1
3 3 4 4 4 4 2 6 4 4 4 4 3 3 4 4 4 3 2 2 2 2 2 1 1 1 1 1 1 1 1 1 1 1 1 1 0 0 0 0 1 1 1 1 1 0 0 0 1
4 5 6 4 3 3 3 6 3 3 2 3 3 2 3 3 3 3 2 2 2 2 2 2 2 2 2 1 1 1 1 1 1 0 1 1 1 0 1 1 1 0 0 0 0 1 1 1 1
Wind_Direction
154 113 104 69 55 47 320 276 265 296 337 331 88 108 128 134 160 193 112 134 133 142 151 155 154 149 145 142 138 135 133 129 130 132 134 136 138 144 148 150 151 152 152 150 149 149 148 149 147
130 122 63 61 78 47 295 276 290 265 186 121 65 75 80 70 71 108 112 138 132 137 144 152 153 149 148 145 142 140 138 136 135 135 136 139 141 144 150 153 156 156 154 153 153 153 153 152 151
144 95 82 72 97 176 253 264 243 280 105 75 72 63 96 126 134 147 157 139 126 131 138 154 151 148 146 146 145 144 142 141 142 143 143 142 141 142 150 154 158 159 159 159 160 161 160 160 164
103 54 56 70 238 230 228 253 243 240 357 42 105 78 55 40 144 146 136 134 127 127 135 155 152 153 148 146 148 147 146 148 150 150 150 150 150 149 152 157 160 161 164 167 168 166 162 166 173
65 77 60 27 278 266 253 247 226 238 253 79 123 120 44 19 83 117 129 133 134 130 128 147 151 151 149 149 149 151 152 154 156 157 156 158 158 159 162 165 166 168 169 171 172 172 170 178 185
61 69 78 304 283 282 272 245 175 126 169 140 121 117 93 67 106 119 124 128 134 135 129 135 151 153 153 152 153 156 157 158 159 161 164 165 166 169 171 171 177 182 184 182 182 181 183 189 196
104 100 149 221 279 291 267 233 138 131 123 190 138 118 123 121 123 121 116 114 118 125 123 125 143 151 153 155 157 157 160 164 162 164 171 174 176 178 178 181 190 197 197 194 195 197 197 198 204
125 105 127 240 235 267 277 28 81 122 185 80 111 139 188 176 133 114 104 100 104 109 117 122 124 128 135 154 162 165 169 174 174 177 179 183 189 193 191 193 200 206 208 209 206 209 207 206 211
99 82 218 229 210 248 260 93 1 37 85 73 65 130 152 134 128 114 108 105 116 123 118 127 124 122 126 145 165 166 170 182 186 190 193 191 194 205 209 213 213 213 213 216 214 211 208 210 222
100 144 228 222 204 208 254 196 179 81 43 29 49 71 114 134 140 142 151 156 161 165 159 134 138 146 140 165 149 144 154 162 168 178 197 178 175 209 216 234 228 221 218 222 223 222 219 222 237
157 198 237 250 226 212 180 174 158 129 229 227 183 151 139 145 152 160 166 167 173 170 164 156 158 148 142 137 136 132 133 140 160 172 176 155 161 225 238 232 250 244 232 228 235 235 225 216 221
185 240 232 263 246 191 176 160 153 180 228 217 165 149 147 157 170 175 171 169 157 153 167 161 157 151 152 145 159 159 163 173 205 203 186 172 192 210 218 220 225 221 224 216 212 219 227 229 228
216 264 273 264 278 204 138 168 176 251 282 119 129 134 154 166 173 172 160 155 151 160 167 171 159 165 167 165 200 165 188 202 220 214 199 187 192 209 217 227 224 224 213 208 199 211 223 236 240
235 265 287 287 258 114 124 60 93 259 136 125 139 149 166 171 168 163 165 169 171 172 174 161 180 188 180 187 202 192 202 208 204 217 207 192 189 198 209 222 229 229 215 208 203 204 213 228 226
284 316 323 310 16 171 108 19 242 220 141 144 156 157 166 172 173 183 181 173 177 178 170 168 201 186 186 203 212 201 208 195 206 225 217 200 192 197 203 211 229 228 210 190 189 180 192 214 218
14 20 325 304 354 111 107 265 274 158 148 159 161 163 170 186 196 193 174 164 165 164 167 188 204 179 194 210 220 219 217 193 210 221 217 207 199 192 194 204 224 217 183 173 181 166 165 211 245
22 306 274 305 334 64 112 248 289 157 156 169 176 176 179 189 201 193 174 167 165 168 165 176 194 194 195 222 266 314 221 201 218 221 211 209 204 197 189 195 204 193 170 179 186 162 167 182 231
231 238 272 279 297 44 239 255 286 170 169 179 186 181 185 195 203 192 174 159 150 145 147 165 175 149 102 74 51 38 22 7 2 288 243 207 207 194 178 187 183 160 150 162 181 168 154 170 199
184 199 264 271 273 250 251 273 287 190 178 191 195 190 197 204 184 163 162 151 138 134 152 169 164 134 110 89 90 67 10 357 351 335 344 345 197 186 175 180 159 148 156 169 179 152 136 129 110
169 200 256 286 306 142 291 296 287 189 200 203 198 198 198 186 156 160 157 152 159 163 175 169 166 148 145 136 129 170 146 88 7 357 6 358 23 157 179 158 155 150 139 135 155 153 143 152 125
206 193 215 236 338 23 25 327 313 306 239 213 216 202 200 193 185 178 165 165 170 178 187 181 167 167 154 119 92 72 55 44 36 21 8 348 349 162 165 148 146 149 153 171 178 162 152 166 159
245 227 199 189 104 301 65 287 286 286 293 241 227 206 205 205 186 177 172 175 183 185 169 150 154 175 169 149 135 131 127 126 231 281 328 348 19 98 144 129 148 153 163 180 191 155 161 157 166
212 197 158 153 148 359 341 203 284 305 264 257 239 220 211 198 184 179 173 177 175 158 146 140 144 162 155 143 150 142 126 134 30 17 39 18 15 31 67 126 143 151 172 184 163 156 156 157 168
146 72 52 54 78 309 239 181 278 246 233 250 232 217 200 177 164 158 146 134 131 134 132 133 140 171 185 143 138 152 154 131 96 39 22 14 16 25 32 91 138 161 163 170 165 160 146 157 164
109 96 30 358 13 256 229 191 253 256 237 215 209 199 186 167 158 155 149 148 159 158 153 146 153 195 218 183 176 165 171 160 159 162 135 35 23 2 327 73 125 149 169 165 146 140 158 164 165
181 149 160 198 224 271 301 238 258 280 290 207 165 162 162 164 166 169 170 164 167 170 174 160 163 218 222 212 233 129 131 137 151 163 164 198 219 252 273 109 144 153 140 128 126 129 150 156 184
146 174 165 134 150 281 278 283 298 7 12 34 110 137 171 181 176 174 163 167 168 171 192 194 187 204 216 214 190 158 133 146 161 162 168 201 246 255 205 77 96 101 122 133 128 125 151 160 201
137 142 107 125 157 249 289 279 270 286 281 294 169 175 188 182 181 178 176 185 185 183 189 184 189 199 202 201 195 165 171 181 156 135 148 168 242 333 40 41 77 92 95 97 103 120 162 139 258
123 108 112 123 159 162 250 271 239 231 222 208 210 200 192 190 193 197 195 190 179 166 171 185 201 196 192 190 192 147 165 151 137 156 195 190 159 93 56 320 122 122 119 105 115 172 186 197 282
150 158 146 152 208 173 185 264 306 261 224 181 191 202 202 195 196 194 189 173 175 188 187 195 218 225 224 201 178 171 151 126 134 216 244 210 192 188 189 149 120 114 65 124 199 251 261 243 269